date,batt_volt,AirTemp_C,Solar_kW,RH,Manual_BP,StationID,WS_ms,PTemp,WS_15min_max,Prog_Sig,Solar_Raw,Bar_mbar,Solar_MJ,Max_WS_2min,Pressure_Raw,Rain_mm,WD_15min_ave,Max_AirTemp_1min,WindDir,WS_15min_med,WS_15min_ave,Elevation_Correction
2022-11-01T00:13:35Z,13.33773,12.50848,0.0,86.44068,0,1156,3.1556,11.15144,4.8216,43690,0.0,1016.052,0.0,4.057,1014.251,0,137.440432823,12.61,132.6136,3.822,3.8179408284,1.80078
2022-11-01T00:28:38Z,13.34425,12.3767,0.0,87.87081,0,1156,2.842,11.01588,4.0964,43690,0.0,1016.052,0.0,4.096,1014.251,0,135.745220671,12.44,136.7632,3.2732,3.25210117647,1.80078
2022-11-01T00:43:36Z,13.33898,12.34457,0.0,89.09426,0,1156,2.8616,10.99329,4.0964,43690,0.0,1016.052,0.0,3.548,1014.251,0,141.539396618,12.34,132.7721,3.1752,3.16615384615,1.80078
2022-11-01T00:58:38Z,13.33892,12.61916,0.0,87.60818,0,1156,3.8416,11.03847,4.4492,43690,0.0,1016.052,0.0,4.136,1014.251,0,139.645934131,12.65,147.8978,3.0772,3.12447058824,1.80078
2022-11-01T01:13:35Z,13.33314,11.69797,0.0,87.8357,0,1156,1.3328,11.15144,3.6652,43690,0.0,1015.895,0.0,1.646,1014.094,0,119.432132968,11.83,82.38894,1.2936,1.33639526154,1.80078
2022-11-01T01:28:37Z,13.33835,10.81457,0.0,91.62894,0,1156,1.6856,11.10625,2.2344,43690,0.0,1015.895,0.0,2.078,1014.094,0,81.6425693512,10.92,78.3663,1.6464,1.63717647,1.80078
2022-11-01T01:43:39Z,13.34402,10.10791,0.0,92.31653,0,1156,1.47,10.9481,2.6656,43690,0.0,1015.895,0.0,2.352,1014.094,0,80.8987589483,10.35,77.79675,2.156,2.09477882353,1.80078
2022-11-01T01:58:39Z,13.35217,10.55664,0.0,93.31446,0,1156,2.1952,10.7877,2.45,43690,0.0,1015.895,0.0,2.45,1014.094,0,79.2769681028,10.66,77.92943,1.9012,1.90628607595,1.80078
2022-11-01T02:13:37Z,13.35308,10.69498,0.0,93.25165,0,1156,2.2148,10.74251,2.4696,43690,0.0,1015.8,0.0,1.842,1014.0,0,79.3305191329,10.8,80.50974,1.7052,1.70995502899,1.80078
2022-11-01T02:28:39Z,13.34773,11.37204,0.0,91.99496,0,1156,2.6852,10.90066,2.744,43690,0.0,1015.8,0.0,2.744,1014.0,0,94.9904352826,11.44,129.8624,1.0192,1.11005175471,1.80078
2022-11-01T02:43:36Z,13.32901,13.66651,0.0,75.05854,0,1156,4.2532,11.31184,4.704,43690,0.0,1015.8,0.0,4.684,1014.0,0,124.050412076,13.67,120.0143,3.6652,3.53913372781,1.80078
2022-11-01T02:58:39Z,13.31019,13.76288,0.0,75.62735,0,1156,4.704,11.8631,5.9976,43690,0.0,1015.8,0.0,5.214,1014.0,0,122.781037365,13.8,124.5031,4.5472,4.53117411765,1.80078
2022-11-01T03:13:37Z,13.29356,13.79664,0.0,76.678,0,1156,4.704,12.37143,5.6644,43690,0.0,1015.89,0.0,5.566,1014.089,0,124.38554048,13.83,128.1611,4.9784,4.92284733728,1.80078
2022-11-01T03:28:39Z,13.28252,13.83053,0.0,77.38986,0,1156,4.704,12.78939,6.2132,43690,0.0,1015.89,0.0,5.292,1014.089,0,127.609368601,13.86,128.5221,4.9196,4.88904705882,1.80078
2022-11-01T03:43:41Z,13.28252,13.79664,0.0,76.13562,0,1156,4.1356,13.04695,5.4488,43690,0.0,1015.89,0.0,5.096,1014.089,0,127.318242157,13.83,123.4919,4.6844,4.63217176471,1.80078
2022-11-01T03:58:42Z,13.28207,13.66104,0.0,76.98309,0,1156,3.0576,13.23446,4.802,43690,0.0,1015.89,0.0,3.92,1014.089,0,126.569737961,13.73,123.2512,3.822,3.86696470588,1.80078
2022-11-01T04:13:37Z,13.282,13.55778,0.0,76.33678,0,1156,3.9004,13.35195,4.2924,43690,0.0,1015.15,0.0,4.096,1013.349,0,127.710081807,13.73,125.7506,3.6064,3.52220118343,1.80078
2022-11-01T04:28:39Z,13.27484,13.78629,0.0,77.30721,0,1156,4.6844,13.44684,5.2528,43690,0.0,1015.15,0.0,5.194,1013.349,0,127.203576737,13.79,127.5349,4.41,4.35996235294,1.80078
2022-11-01T04:43:40Z,13.27479,13.68495,0.0,77.91774,0,1156,3.5868,13.54172,4.8216,43690,0.0,1015.15,0.0,4.312,1013.349,0,128.716081475,13.68,133.7199,4.0278,4.03172,1.80078
2022-11-01T04:58:42Z,13.27461,13.44796,0.0,83.64588,0,1156,4.5276,13.63662,5.292,43690,0.0,1015.15,0.0,5.292,1013.349,0,136.674641058,13.62,141.7818,4.3904,4.38221411765,1.80078
2022-11-01T05:13:43Z,13.27474,13.2113,0.0,85.9854,0,1156,2.3324,13.70665,4.5276,43690,0.0,1015.554,0.0,2.901,1013.753,0,148.30842377,13.21,152.973,3.3712,3.27066352941,1.80078
2022-11-01T05:28:41Z,13.27474,13.27874,0.0,85.88315,0,1156,2.7636,13.72924,3.6652,43690,0.0,1015.554,0.0,3.273,1013.753,0,150.003512997,13.31,148.9052,2.7244,2.81458481013,1.80078
2022-11-01T05:43:43Z,13.27473,12.97429,0.0,87.88378,0,1156,1.8032,13.75409,3.8612,43690,0.0,1015.554,0.0,2.274,1013.753,0,159.828005908,13.11,171.8638,1.9012,2.0779607362,1.80078
2022-11-01T05:58:42Z,13.26922,12.97408,0.0,87.78175,0,1156,0.0392,13.75409,2.5088,43690,0.0,1015.554,0.0,1.176,1013.753,0,160.600512234,13.08,146.163,1.2152,1.17472425207,1.80078
2022-11-01T06:13:44Z,13.27474,13.00798,0.0,87.27336,0,1156,0.0392,13.72924,1.0584,43690,0.0,1015.883,0.0,1.058,1014.082,0,130.060984099,13.08,125.3239,0.49,0.435581171765,1.80078
2022-11-01T06:28:41Z,13.27474,12.87241,0.0,88.42571,0,1156,0.0392,13.70665,0.9408,43690,0.0,1015.883,0.0,0.666,1014.082,0,97.7125550788,12.84,70.93984,0.0392,0.157959761538,1.80078
2022-11-01T06:43:42Z,13.28026,13.07493,0.0,87.98373,0,1156,2.2148,13.65921,2.8028,43690,0.0,1015.883,0.0,1.901,1014.082,0,95.0435649964,13.01,125.8513,1.00939995,1.06866116824,1.80078
2022-11-01T06:58:44Z,13.27474,13.85496,0.0,84.96814,0,1156,2.5872,13.70665,3.6456,43690,0.0,1015.883,0.0,3.43,1014.082,0,129.634344501,13.89,131.6278,2.9596,2.91993882353,1.80078
2022-11-01T07:13:45Z,13.26922,13.92259,0.0,84.15448,0,1156,2.058,13.84898,2.6852,43690,0.0,1015.719,0.0,2.038,1013.918,0,125.766599752,13.99,126.5981,1.9796,1.99839294118,1.80078
2022-11-01T07:28:41Z,13.26922,14.02473,0.0,84.01964,0,1156,2.0776,13.99131,2.646,43690,0.0,1015.719,0.0,2.195,1013.918,0,124.475692423,13.99,131.051,2.0188,2.02900591716,1.80078
2022-11-01T07:43:44Z,13.26371,14.09103,0.0,84.49182,0,1156,2.744,14.1088,2.842,43690,0.0,1015.719,0.0,2.842,1013.918,0,130.673483948,14.09,128.232,2.2932,2.20234823529,1.80078
2022-11-01T07:58:46Z,13.26329,14.19217,0.0,84.52488,0,1156,3.724,14.22854,4.7824,43690,0.0,1015.719,0.0,4.194,1013.918,0,130.724050207,14.23,135.4496,2.9792,3.18476941176,1.80078
2022-11-01T08:13:43Z,13.25679,14.18609,0.0,85.22702,0,1156,3.332,14.32342,4.1356,43690,0.0,1015.684,0.0,3.626,1013.883,0,131.883893813,14.25,129.8043,3.2732,3.27192426036,1.80078
2022-11-01T08:28:47Z,13.25601,14.21922,0.0,85.73414,0,1156,3.1948,14.42057,4.606,43690,0.0,1015.684,0.0,3.528,1013.883,0,129.120101912,14.39,127.4206,3.2536,3.25939371069,1.80078
2022-11-01T08:43:43Z,13.25595,14.15116,0.0,85.36093,0,1156,3.7828,14.42057,4.116,43690,0.0,1015.684,0.0,4.116,1013.883,0,127.820854507,14.29,129.4168,3.2732,3.10793372781,1.80078
2022-11-01T08:58:46Z,13.25595,14.32059,0.0,85.86923,0,1156,3.7436,14.44317,4.1356,43690,0.0,1015.684,0.0,4.136,1013.883,0,131.316576122,14.32,129.1763,3.5084,3.45663294118,1.80078
2022-11-01T09:13:47Z,13.25595,14.18504,0.0,84.85262,0,1156,3.9592,14.51546,5.488,43690,0.0,1015.471,0.0,5.488,1013.67,0,127.118944107,14.32,126.9146,4.1062,4.07357176471,1.80078
2022-11-01T09:28:48Z,13.25043,14.28671,0.0,85.12372,0,1156,5.978,14.58776,6.0564,43690,0.0,1015.471,0.0,5.9,1013.67,0,125.622578743,14.35,128.6469,4.6256,4.66745176471,1.80078
2022-11-01T09:43:44Z,13.25595,14.11727,0.0,86.51308,0,1156,4.7628,14.66005,6.9776,43690,0.0,1015.471,0.0,5.919,1013.67,0,127.716746279,14.19,127.0831,5.586,5.55190295858,1.80078
2022-11-01T09:58:47Z,13.24491,14.0495,0.0,89.49513,0,1156,4.4296,14.7075,5.7428,43690,0.0,1015.471,0.0,5.292,1013.67,0,130.876463945,14.15,130.4274,4.7628,4.78263058824,1.80078
2022-11-01T10:13:44Z,13.25043,13.74451,0.0,90.3084,0,1156,3.7436,14.7075,5.488,43690,0.0,1015.308,0.0,4.057,1013.507,0,125.819142801,13.85,125.6154,4.3708,4.23197633136,1.80078
2022-11-01T10:28:48Z,13.25595,13.64285,0.0,89.46123,0,1156,2.2148,14.58776,4.116,43690,0.0,1015.308,0.0,3.175,1013.507,0,122.725180975,13.64,121.3328,2.9204,2.98600235294,1.80078
2022-11-01T10:43:46Z,13.25595,13.50731,0.0004821558,90.74893,0,1156,2.1756,14.46801,3.1164,43690,0.0337509,1015.308,2.410779e-06,2.607,1013.507,0,126.285060803,13.54,140.8452,2.1952,2.15913136095,1.80078
2022-11-01T10:58:49Z,13.26146,13.16934,0.001446467,92.74982,0,1156,2.45,14.32342,4.2728,43690,0.1012527,1015.308,7.232336e-06,2.96,1013.507,0,128.783930343,13.17,128.8176,2.8322,2.82585882353,1.80078
2022-11-01T11:13:46Z,13.26869,13.06895,0.005785869,94.20925,0,1156,2.352,14.1585,3.3712,43690,0.4050108,1015.248,2.892934e-05,2.979,1013.447,0,123.648257355,13.1,125.0672,2.3912,2.36545325444,1.80078
2022-11-01T11:28:48Z,13.2692,13.04131,0.009643115,95.13544,0,1156,1.9404,14.01391,3.2732,43690,0.6750181,1015.248,4.821558e-05,2.646,1013.447,0,123.173074783,13.08,124.0713,2.6068,2.61763764706,1.80078
2022-11-01T11:43:50Z,13.27474,13.00758,0.01301832,95.84746,0,1156,2.9596,13.94387,3.234,43690,0.9112823,1015.248,6.509159e-05,3.234,1013.447,0,120.45180803,13.08,121.2321,2.156,2.13155764706,1.80078
2022-11-01T11:58:48Z,13.26922,13.00795,0.01060785,96.55988,0,1156,2.2148,13.91902,3.4104,43690,0.7425498,1015.248,5.303927e-05,2.92,1013.447,0,119.643528531,13.18,122.4843,2.6264,2.60540828402,1.80078
2022-11-01T12:13:50Z,13.26922,13.21131,0.008679557,96.9666,0,1156,0.588,13.91902,3.5868,43690,0.607569,1015.558,4.339778e-05,1.921,1013.757,0,122.043031862,13.21,111.5112,1.6072,1.63948234765,1.80078
2022-11-01T12:28:48Z,13.26922,13.10963,0.02121502,97.23773,0,1156,0.8624,13.96647,2.0384,43690,1.485051,1015.558,0.0001060751,0.706,1013.757,0,112.675295109,13.18,119.4041,0.8624,0.859384604142,1.80078
2022-11-01T12:43:51Z,13.26922,13.38077,0.03519737,97.47498,0,1156,0.0392,14.03876,1.8816,43690,2.463816,1015.558,0.0001759868,0.314,1013.757,0,122.578299551,13.35,118.8266,0.5292,0.581889404118,1.80078
2022-11-01T12:58:50Z,13.26356,13.31298,0.03182228,97.54277,0,1156,0.2744,14.1585,0.7056,43690,2.22756,1015.558,0.0001591114,0.039,1013.757,0,102.794006639,13.52,118.3935,0.0392,0.181271005917,1.80078
2022-11-01T13:13:48Z,13.25725,13.27531,0.04291186,97.6714,0,1156,0.9799999,14.27598,1.8816,43690,3.00383,1015.558,0.0002145593,1.882,1013.757,0,87.9960851121,13.34,81.3777,0.9995999,0.886639043787,1.80078
2022-11-01T13:28:52Z,13.25661,13.47511,0.05303713,97.7666,0,1156,1.9992,14.34828,2.352,43690,3.712599,1015.558,0.0002651857,2.332,1013.757,0,82.4284789291,13.44,84.06707,1.2642,1.23791293294,1.80078
2022-11-01T13:43:50Z,13.25601,13.57585,0.0414654,97.96823,0,1156,1.8032,14.42057,2.3128,43690,2.902578,1015.558,0.000207327,1.725,1013.757,0,79.9887012098,13.54,79.10926,1.4112,1.45179171006,1.80078
2022-11-01T13:58:48Z,13.25595,13.37238,0.03278659,98.06963,0,1156,1.4308,14.46801,2.8224,43690,2.295061,1015.558,0.000163933,1.705,1013.757,0,78.8486981345,13.47,76.96771,1.6464,1.62935147811,1.80078
2022-11-01T14:13:53Z,13.25595,13.27026,0.04532264,98.13655,0,1156,1.4896,14.46801,2.7636,43690,3.172585,1014.905,0.0002266132,2.705,1013.105,0,78.7227988615,13.34,78.1219,2.1756,2.10919058765,1.80078
2022-11-01T14:28:50Z,13.26146,13.20232,0.05400144,98.27182,0,1156,2.7244,14.46801,3.8416,43690,3.780101,1014.905,0.0002700072,3.567,1013.105,0,78.6690186921,13.17,74.53679,3.038,2.98615857988,1.80078
2022-11-01T14:43:52Z,13.25595,13.03289,0.0969133,98.40736,0,1156,2.9792,14.44317,4.2728,43690,6.783931,1014.905,0.0004845665,4.214,1013.105,0,80.0648968027,13.13,83.0539,3.528,3.42469647059,1.80078
2022-11-01T14:58:54Z,13.25617,13.10067,0.0838951,98.5429,0,1156,3.0184,14.46801,4.5864,43690,5.872657,1014.905,0.0004194755,3.508,1013.105,0,79.3086963086,13.17,76.41345,3.3712,3.37765647059,1.80078
2022-11-01T15:13:51Z,13.25595,13.03384,0.05593007,98.64633,0,1156,3.8612,14.44317,4.5864,43690,3.915105,1014.495,0.0002796503,4.057,1012.694,0,78.3771531036,13.07,79.2539,3.43,3.39880236686,1.80078
2022-11-01T15:28:54Z,13.25595,12.99902,0.1133066,98.74626,0,1156,4.3904,14.42057,4.8608,43690,7.931462,1014.495,0.000566533,4.861,1012.694,0,78.0002469203,13.07,77.39992,4.0866,3.98237411765,1.80078
2022-11-01T15:43:51Z,13.25595,13.16943,0.1060743,98.81583,0,1156,3.1556,14.46801,5.5468,43690,7.425198,1014.495,0.0005303713,4.214,1012.694,0,79.3569882683,13.17,75.13968,4.0964,4.05812781065,1.80078
2022-11-01T15:58:53Z,13.25595,12.99902,0.08052001,98.88181,0,1156,3.3124,14.49061,5.5272,43690,5.636401,1014.495,0.0004026,5.194,1012.694,0,77.3819252792,13.13,79.34874,3.9984,3.99828470588,1.80078
2022-11-01T16:13:50Z,13.26146,12.69402,0.04917989,98.91566,0,1156,4.6256,14.42057,5.6056,43690,3.442592,1013.519,0.0002458994,5.606,1011.718,0,76.7776181621,12.83,69.89328,4.2728,4.17317633136,1.80078
2022-11-01T16:28:51Z,13.26736,12.49153,0.08968097,98.985,0,1156,4.7236,14.27598,5.8996,43690,6.277668,1013.519,0.0004484048,5.723,1011.718,0,78.2649876451,12.59,81.8041,4.3316,4.25575147929,1.80078
2022-11-01T16:43:54Z,13.2685,12.59891,0.08052001,99.02964,0,1156,4.704,14.1811,5.9192,43690,5.636401,1013.519,0.0004026,5.429,1011.718,0,78.4351600357,12.73,77.96296,4.6844,4.54247294118,1.80078
2022-11-01T16:58:51Z,13.26918,12.8722,0.07907355,99.20315,0,1156,5.0176,14.13365,5.2724,43690,5.535148,1013.519,0.0003953677,4.978,1011.718,0,78.118226542,12.94,81.21474,3.9984,3.92568284024,1.80078
2022-11-01T17:13:55Z,13.26356,12.90409,0.1133066,99.1994,0,1156,4.2728,14.1811,5.1156,43690,7.931462,1013.035,0.000566533,4.606,1011.234,0,78.2146995377,12.9,77.55414,4.0474,4.04290352941,1.80078
2022-11-01T17:28:53Z,13.2575,13.07208,0.07280552,99.29833,0,1156,3.5868,14.22854,4.7432,43690,5.096386,1013.035,0.0003640276,3.998,1011.234,0,78.8555623042,13.07,78.5626,3.822,3.77920473373,1.80078
2022-11-01T17:43:56Z,13.26277,13.10453,0.06123378,99.32954,0,1156,3.2928,14.27598,4.4296,43690,4.286364,1013.035,0.0003061689,3.822,1011.234,0,78.5899834335,13.07,85.89922,3.3516,3.34295294118,1.80078
2022-11-01T17:58:54Z,13.26254,13.17402,0.0838951,99.33272,0,1156,2.646,14.30083,4.018,43690,5.872657,1013.035,0.0004194755,3.783,1011.234,0,78.5884048371,13.17,77.6727,3.2928,3.24838106509,1.80078
2022-11-01T18:13:52Z,13.26172,13.16987,0.08003786,99.35886,0,1156,2.94,14.34828,3.8808,43690,5.60265,1012.171,0.0004001892,3.881,1010.37,0,78.7315810857,13.17,79.37492,3.2144,3.15072899408,1.80078
2022-11-01T18:28:57Z,13.25606,13.30411,0.08052001,99.45808,0,1156,2.3324,14.42057,4.0376,43690,5.636401,1012.171,0.0004026,3.704,1010.37,0,79.6846238386,13.27,79.1805,3.1066,3.03016,1.80078
2022-11-01T18:43:55Z,13.25595,13.33791,0.08485942,99.45792,0,1156,2.646,14.46801,3.6848,43690,5.940159,1012.171,0.000424297,3.587,1010.37,0,78.5431391777,13.3,79.61344,2.94,2.8538295858,1.80078
2022-11-01T18:58:58Z,13.25595,13.33787,0.04821558,99.49174,0,1156,2.3128,14.54031,3.2928,43690,3.37509,1012.171,0.0002410779,3.293,1010.37,0,78.8333734535,13.44,80.14269,2.6852,2.64058117647,1.80078
2022-11-01T19:13:56Z,13.25595,13.2701,0.04339402,99.55951,0,1156,2.45,14.54031,3.332,43690,3.037581,1011.892,0.0002169701,2.979,1010.092,0,81.3564044781,13.37,81.46597,2.7244,2.73634556213,1.80078
2022-11-01T19:28:55Z,13.25595,13.33787,0.05062635,99.55951,0,1156,2.4696,14.56291,3.0968,43690,3.543845,1011.892,0.0002531318,2.999,1010.092,0,82.1859457256,13.47,79.92614,2.4304,2.39885443787,1.80078
2022-11-01T19:43:58Z,13.25595,13.43953,0.04435833,99.62728,0,1156,2.2932,14.61261,2.9988,43690,3.105083,1011.892,0.0002217916,2.548,1010.092,0,80.6448894655,13.47,79.95021,2.3716,2.32502117647,1.80078
2022-11-01T19:58:58Z,13.25595,13.50731,0.03857246,99.62728,0,1156,2.4696,14.6352,2.5676,43690,2.700072,1011.892,0.0001928623,2.568,1010.092,0,81.8148800463,13.54,83.36668,2.1952,2.14509822485,1.80078
2022-11-01T20:13:57Z,13.25595,13.5412,0.02121485,99.66117,0,1156,1.9208,14.66005,2.842,43690,1.48504,1011.242,0.0001060743,2.332,1009.441,0,81.2962282539,13.58,78.62693,2.2148,2.18000710059,1.80078
2022-11-01T20:28:56Z,13.25595,13.67674,0.01205389,99.72894,0,1156,0.2352,14.66005,2.0972,43690,0.8437726,1011.242,6.026947e-05,1.215,1009.441,0,78.1266591227,13.68,87.04781,1.2152,1.2702887497,1.80078
2022-11-01T20:44:00Z,13.25595,13.64285,0.004821558,99.76283,0,1156,0.0392,14.66005,0.9015999,43690,0.337509,1011.242,2.410779e-05,0.588,1009.441,0,92.361779389,13.71,72.75638,0.0392,0.216291764118,1.80078
2022-11-01T20:58:59Z,13.25595,13.64285,0.00337509,99.76283,0,1156,3.1948,14.66005,3.3908,43690,0.2362563,1011.242,1.687545e-05,3.391,1009.441,0,112.500741051,13.74,142.7459,1.372,1.38058224675,1.80078
2022-11-01T21:13:58Z,13.25595,13.64285,0.0009643115,99.76283,0,1156,2.842,14.66005,3.724,43690,0.06750181,1011.242,4.821558e-06,3.665,1009.441,0,139.61250325,13.71,145.2962,3.234,3.21985088757,1.80078
2022-11-01T21:29:00Z,13.25595,13.50731,0.0,99.79671,0,1156,4.7236,14.61261,5.3116,43690,0.0,1011.242,0.0,5.194,1009.441,0,147.038868327,13.61,145.9699,4.2532,4.20750532544,1.80078
2022-11-01T21:43:58Z,13.25595,13.33787,0.0,99.8645,0,1156,5.1548,14.56291,6.0368,43690,0.0,1011.242,0.0,6.037,1009.441,0,144.56738126,13.51,144.5744,5.2528,5.20072662722,1.80078
2022-11-01T21:59:15Z,13.25595,13.37176,0.0,99.8645,0,1156,5.88,14.49061,6.2132,43690,0.0,1011.242,0.0,5.86,1009.441,0,146.591898124,13.44,143.3233,5.2136,5.1420173913,1.80078
2022-11-01T22:15:26Z,13.25595,13.33787,0.0,99.96616,0,1156,4.2532,14.42057,6.5072,43690,0.0,1012.218,0.0,6.39,1010.417,0,147.604773047,13.44,151.0465,5.7232,5.62804516129,1.80078
2022-11-01T22:30:25Z,13.25595,13.3728,0.0,100.0359,0,1156,6.0368,14.37313,7.114799,43690,0.0,1012.218,0.0,6.88,1010.417,0,148.05938076,13.44,154.081,5.9584,5.84741060947,1.80078
2022-11-01T22:45:26Z,13.26148,13.23867,0.0,100.0385,0,1156,7.0952,14.32342,8.192799,43690,0.0,1012.218,0.0,6.919,1010.417,0,148.442243434,13.31,145.5916,6.5856,6.51392650296,1.80078
2022-11-01T23:00:27Z,13.26797,13.1026,0.0,99.9698,0,1156,6.5856,14.25339,8.447599,43690,0.0,1012.562,0.0,7.801001,1010.761,0,152.000967454,13.27,162.0717,6.7424,6.70227200592,1.80078
2022-11-01T23:15:23Z,13.26753,13.2412,0.0,99.87386,0,1156,5.978,14.20594,7.6048,43690,0.0,1012.562,0.0,6.762,1010.761,0,156.900485649,13.31,153.5631,5.978,5.93566859763,1.80078
2022-11-01T23:30:27Z,13.26914,13.14074,0.0,99.70667,0,1156,6.487599,14.1585,7.5264,43690,0.0,1012.562,0.0,6.762,1010.761,0,155.902054916,13.34,153.6147,5.6938,5.69564468235,1.80078
2022-11-01T23:45:26Z,13.2688,13.20924,0.0,99.3691,0,1156,5.8016,14.13365,7.5264,43690,0.0,1012.562,0.0,6.742,1010.761,0,152.000862815,13.31,157.0337,6.1936,6.1034863432,1.80078
2022-11-02T00:00:24Z,13.2692,13.13953,0.0,99.0266,0,1156,6.9972,14.1088,7.4872,43690,0.0,1012.266,0.0,7.487001,1010.465,0,154.006410224,13.34,150.411,6.0564,5.99562836095,1.80078
2022-11-02T00:15:29Z,13.26346,13.14205,0.0,98.5907,0,1156,5.9388,14.1088,8.036,43690,0.0,1012.266,0.0,6.723001,1010.465,0,156.946954476,13.31,154.557,5.9094,5.92634819412,1.80078
2022-11-02T00:30:29Z,13.269,13.17598,0.0,97.87904,0,1156,4.5668,14.06135,7.7224,43690,0.0,1012.266,0.0,7.722001,1010.465,0,158.271051157,13.21,158.359,5.6938,5.70221645294,1.80078
2022-11-02T00:45:29Z,13.26868,13.17739,0.0,96.76318,0,1156,5.194,14.01391,7.8204,43690,0.0,1012.266,0.0,6.84,1010.465,0,152.606887296,13.21,155.0424,6.3308,6.27638107059,1.80078
2022-11-02T01:00:29Z,13.26912,13.21122,0.0,95.81409,0,1156,4.9196,14.01391,7.996799,43690,0.0,1012.059,0.0,6.625,1010.258,0,152.466050228,13.28,152.5878,6.3308,6.31592698235,1.80078
2022-11-02T01:15:29Z,13.26922,12.97392,0.0,95.57674,0,1156,7.761599,14.01391,8.427999,43690,0.0,1012.059,0.0,8.309999,1010.258,0,149.7419217,13.14,153.4779,6.7718,6.65408454706,1.80078
2022-11-02T01:30:27Z,13.26922,13.10963,0.0,94.18741,0,1156,6.2916,13.99131,8.212401,43690,0.0,1012.059,0.0,6.919,1010.258,0,151.155003105,13.18,148.5212,6.2132,6.23082833136,1.80078
2022-11-02T01:45:31Z,13.26922,13.10874,0.0,94.15193,0,1156,5.5468,13.94387,7.114799,43690,0.0,1012.059,0.0,6.292,1010.258,0,150.57648056,13.18,147.9894,5.5958,5.46736234706,1.80078
2022-11-02T02:00:29Z,13.26922,12.97405,0.0,93.81456,0,1156,6.0368,13.91902,7.252,43690,0.0,1011.979,0.0,6.644,1010.178,0,151.250788982,13.08,148.2806,5.9976,5.88846622485,1.80078
2022-11-02T02:15:27Z,13.27474,12.94017,0.0,94.72968,0,1156,6.5072,13.89643,8.3692,43690,0.0,1011.979,0.0,7.409,1010.178,0,147.821101285,12.87,143.2753,6.487599,6.48551232544,1.80078
2022-11-02T02:30:31Z,13.27474,12.70292,0.0,95.44143,0,1156,7.3304,13.84898,8.937599,43690,0.0,1011.979,0.0,7.82,1010.178,0,145.251308434,12.84,149.4357,7.2912,7.14431512941,1.80078
2022-11-02T02:45:29Z,13.27456,12.49957,0.0,96.35653,0,1156,6.8012,13.77668,9.074799,43690,0.0,1011.979,0.0,9.07,1010.178,0,146.274308624,12.6,151.842,7.369599,7.20688494083,1.80078
2022-11-02T03:00:32Z,13.27474,12.60076,0.0,96.89793,0,1156,7.016799,13.70665,8.918,43690,0.0,1011.485,0.0,7.448001,1009.684,0,151.292549539,12.6,157.0384,7.3402,7.27459747647,1.80078
2022-11-02T03:15:30Z,13.27474,12.53346,0.0,97.47498,0,1156,7.4872,13.6818,9.0552,43690,0.0,1011.485,0.0,7.605001,1009.684,0,151.967635781,12.6,145.802,7.056,7.03524007101,1.80078
2022-11-02T03:30:28Z,13.28012,12.49873,0.0,97.47342,0,1156,7.8008,13.63662,9.0356,43690,0.0,1011.485,0.0,8.17,1009.684,0,156.439310352,12.5,162.0184,7.114799,7.12419397633,1.80078
2022-11-02T03:45:32Z,13.28008,12.32898,0.0,96.86283,0,1156,5.9584,13.56432,8.5456,43690,0.0,1011.485,0.0,8.55,1009.684,0,154.355050171,12.43,162.7875,6.86,6.79439749412,1.80078
2022-11-02T04:00:29Z,13.28026,12.33217,0.0,96.15698,0,1156,7.271599,13.51687,8.859199,43690,0.0,1010.779,0.0,7.468001,1008.978,0,155.216725418,12.43,152.8828,7.1932,7.08163057396,1.80078
2022-11-02T04:15:32Z,13.28061,11.95568,0.0,96.79414,0,1156,7.859599,13.44684,8.3888,43690,0.0,1010.779,0.0,8.08,1008.978,0,149.325696505,12.02,147.7707,7.154,7.06960457059,1.80078
2022-11-02T04:30:29Z,13.28686,12.02829,0.0,96.9726,0,1156,6.5856,13.32936,7.5852,43690,0.0,1010.779,0.0,7.174,1008.978,0,151.581566621,12.0,142.0569,6.389599,6.36153364497,1.80078
2022-11-02T04:45:31Z,13.28801,11.92996,0.0,97.11445,0,1156,7.7028,13.25932,9.0356,43690,0.0,1010.779,0.0,8.72,1008.978,0,149.998200194,12.07,149.5508,6.8697995,6.71680461176,1.80078
2022-11-02T05:00:32Z,13.28786,12.0337,0.0,97.35557,0,1156,6.2328,13.18702,9.212,43690,0.0,1011.412,0.0,7.918,1009.612,0,153.266103088,12.03,161.7591,7.1343995,7.14247038824,1.80078
2022-11-02T05:15:33Z,13.29341,11.93221,0.0,97.49152,0,1156,8.3692,13.11699,9.0552,43690,0.0,1011.412,0.0,8.49,1009.612,0,149.705415672,12.0,149.5332,7.7812,7.70891032941,1.80078
2022-11-02T05:30:29Z,13.28804,12.06769,0.0,97.49133,0,1156,8.918,13.0944,9.309999,43690,0.0,1011.412,0.0,8.8,1009.612,0,151.042684053,12.0,150.2549,7.8204,7.73422934911,1.80078
2022-11-02T05:45:30Z,13.29356,11.93221,0.0,96.84746,0,1156,8.6044,13.04695,9.760799,43690,0.0,1011.412,0.0,9.76,1009.612,0,150.580001416,12.1,154.3949,8.0065995,8.06021152353,1.80078
2022-11-02T06:00:32Z,13.29356,12.13559,0.0,96.06779,0,1156,8.134,13.02436,10.2704,43690,0.0,1011.903,0.0,9.45,1010.102,0,154.020637079,12.2,156.4888,8.3006,8.23199984118,1.80078
2022-11-02T06:15:33Z,13.29356,12.0678,0.0,95.66102,0,1156,8.9964,12.97691,9.7804,43690,0.0,1011.903,0.0,9.599999,1010.102,0,153.233722986,12.1,162.2651,8.192799,8.20801860588,1.80078
2022-11-02T06:30:34Z,13.29908,12.20339,0.0,94.81356,0,1156,8.918,12.90687,9.6824,43690,0.0,1011.903,0.0,9.13,1010.102,0,153.680651201,12.24,153.697,8.3398,8.20721152941,1.80078
2022-11-02T06:45:30Z,13.29356,12.33898,0.0,94.74577,0,1156,8.055599,12.92947,9.741199,43690,0.0,1011.903,0.0,9.74,1010.102,0,153.522511376,12.41,152.7342,8.231999,8.13689916568,1.80078
2022-11-02T07:00:32Z,13.28804,12.44068,0.0,94.98305,0,1156,7.546,13.00177,9.6628,43690,0.0,1011.414,0.0,9.66,1009.614,0,155.016957545,12.51,154.4671,8.212401,8.14633622941,1.80078
2022-11-02T07:15:34Z,13.28804,12.47458,0.0,95.05085,0,1156,8.1732,13.0718,9.329599,43690,0.0,1011.414,0.0,8.679999,1009.614,0,156.66752287,12.51,154.9003,7.938,7.80126099412,1.80078
2022-11-02T07:30:36Z,13.29356,12.50848,0.0,95.15254,0,1156,7.5264,13.00177,9.094401,43690,0.0,1011.414,0.0,8.309999,1009.614,0,154.618183799,12.61,152.8787,7.8204,7.70314567647,1.80078
2022-11-02T07:45:32Z,13.29356,12.44068,0.0,93.9661,0,1156,7.9184,12.83684,9.0552,43690,0.0,1011.414,0.0,9.059999,1009.614,0,155.997115876,12.61,153.9858,7.3304,7.27101991716,1.80078